Wetterdaten: Sonntag, 16.10.2016
Datum Zeit Temp. I. Temp. A. Boden 5 cm Feuchte A. Sonne Luftdruck Regen Wind Sonnenschein
16.10.2016 00:02 22,8 C 12,6 C 13,5 C 96 % 0 % 1021 hPa 0,0 l/m 0,0 km/h (0 Bft) 0 min
16.10.2016 00:05 22,8 C 12,6 C 13,4 C 96 % 0 % 1021 hPa 0,0 l/m 0,0 km/h (0 Bft) 0 min
16.10.2016 00:08 22,8 C 12,5 C 13,4 C 96 % 0 % 1021 hPa 0,0 l/m 0,0 km/h (0 Bft) 0 min
16.10.2016 00:11 22,8 C 12,5 C 13,4 C 96 % 0 % 1021 hPa 0,0 l/m 0,3 km/h (0 Bft) 0 min
16.10.2016 00:14 22,8 C 12,5 C 13,4 C 96 % 0 % 1021 hPa 0,0 l/m 0,0 km/h (0 Bft) 0 min
16.10.2016 00:17 22,8 C 12,4 C 13,4 C 96 % 0 % 1021 hPa 0,0 l/m 0,0 km/h (0 Bft) 0 min
16.10.2016 00:20 22,8 C 12,4 C 13,4 C 96 % 0 % 1021 hPa 0,0 l/m 0,0 km/h (0 Bft) 0 min
16.10.2016 00:23 22,7 C 12,5 C 13,4 C 96 % 0 % 1021 hPa 0,0 l/m 0,0 km/h (0 Bft) 0 min
16.10.2016 00:26 22,7 C 12,5 C 13,4 C 96 % 0 % 1021 hPa 0,0 l/m 0,0 km/h (0 Bft) 0 min
16.10.2016 00:29 22,7 C 12,5 C 13,4 C 96 % 0 % 1021 hPa 0,0 l/m 0,0 km/h (0 Bft) 0 min
16.10.2016 00:32 22,7 C 12,5 C 13,5 C 96 % 0 % 1021 hPa 0,0 l/m 0,0 km/h (0 Bft) 0 min
16.10.2016 00:35 22,7 C 12,5 C 13,4 C 96 % 0 % 1021 hPa 0,0 l/m 0,0 km/h (0 Bft) 0 min
16.10.2016 00:38 22,7 C 12,5 C 13,4 C 96 % 0 % 1021 hPa 0,0 l/m 0,0 km/h (0 Bft) 0 min
16.10.2016 00:41 22,7 C 12,4 C 13,4 C 96 % 0 % 1021 hPa 0,0 l/m 0,0 km/h (0 Bft) 0 min
16.10.2016 00:44 22,7 C 12,4 C 13,4 C 96 % 0 % 1021 hPa 0,0 l/m 0,0 km/h (0 Bft) 0 min
16.10.2016 00:47 22,7 C 12,4 C 13,4 C 96 % 0 % 1021 hPa 0,0 l/m 0,0 km/h (0 Bft) 0 min
16.10.2016 00:50 22,7 C 12,5 C 13,4 C 96 % 0 % 1021 hPa 0,0 l/m 0,0 km/h (0 Bft) 0 min
16.10.2016 00:53 22,7 C 12,4 C 13,4 C 96 % 0 % 1021 hPa 0,0 l/m 0,0 km/h (0 Bft) 0 min
16.10.2016 00:56 22,6 C 12,4 C 13,4 C 96 % 0 % 1021 hPa 0,0 l/m 0,0 km/h (0 Bft) 0 min
16.10.2016 00:59 22,6 C 12,4 C 13,4 C 96 % 0 % 1021 hPa 0,0 l/m 0,0 km/h (0 Bft) 0 min
16.10.2016 01:02 22,6 C 12,4 C 13,4 C 96 % 0 % 1021 hPa 0,0 l/m 0,0 km/h (0 Bft) 0 min
16.10.2016 01:05 22,6 C 12,4 C 13,4 C 96 % 0 % 1021 hPa 0,0 l/m 0,0 km/h (0 Bft) 0 min
16.10.2016 01:08 22,6 C 12,4 C 13,3 C 96 % 0 % 1021 hPa 0,0 l/m 0,0 km/h (0 Bft) 0 min
16.10.2016 01:11 22,6 C 12,3 C 13,4 C 96 % 0 % 1021 hPa 0,0 l/m 0,0 km/h (0 Bft) 0 min
16.10.2016 01:14 22,6 C 12,2 C 13,4 C 96 % 0 % 1021 hPa 0,0 l/m 0,0 km/h (0 Bft) 0 min
16.10.2016 01:17 22,6 C 12,2 C 13,4 C 96 % 0 % 1021 hPa 0,0 l/m 0,0 km/h (0 Bft) 0 min
16.10.2016 01:20 22,6 C 12,2 C 13,3 C 96 % 0 % 1022 hPa 0,0 l/m 0,0 km/h (0 Bft) 0 min
16.10.2016 01:23 22,6 C 12,2 C 13,2 C 96 % 0 % 1022 hPa 0,0 l/m 0,0 km/h (0 Bft) 0 min
16.10.2016 01:26 22,6 C 12,2 C 13,3 C 96 % 0 % 1022 hPa 0,0 l/m 0,0 km/h (0 Bft) 0 min
16.10.2016 01:29 22,6 C 12,3 C 13,3 C 96 % 0 % 1022 hPa 0,0 l/m 0,0 km/h (0 Bft) 0 min
16.10.2016 01:32 22,6 C 12,2 C 13,3 C 96 % 0 % 1022 hPa 0,0 l/m 0,0 km/h (0 Bft) 0 min
16.10.2016 01:35 22,6 C 12,2 C 13,3 C 96 % 0 % 1022 hPa 0,0 l/m 0,8 km/h (0 Bft) 0 min
16.10.2016 01:38 22,6 C 12,2 C 13,2 C 96 % 0 % 1022 hPa 0,0 l/m 0,0 km/h (0 Bft) 0 min
16.10.2016 01:41 22,6 C 12,2 C 13,2 C 96 % 0 % 1022 hPa 0,0 l/m 0,0 km/h (0 Bft) 0 min
16.10.2016 01:44 22,6 C 12,2 C 13,3 C 96 % 0 % 1022 hPa 0,0 l/m 0,0 km/h (0 Bft) 0 min
16.10.2016 01:47 22,6 C 12,2 C 13,3 C 96 % 0 % 1022 hPa 0,0 l/m 0,0 km/h (0 Bft) 0 min
16.10.2016 01:50 22,6 C 12,2 C 13,2 C 96 % 0 % 1022 hPa 0,0 l/m 0,0 km/h (0 Bft) 0 min
16.10.2016 01:53 22,6 C 12,2 C 13,2 C 96 % 0 % 1022 hPa 0,0 l/m 0,0 km/h (0 Bft) 0 min
16.10.2016 01:56 22,6 C 12,2 C 13,2 C 96 % 0 % 1022 hPa 0,0 l/m 0,0 km/h (0 Bft) 0 min
16.10.2016 01:59 22,6 C 12,1 C 13,2 C 96 % 0 % 1022 hPa 0,0 l/m 0,0 km/h (0 Bft) 0 min
16.10.2016 02:02 22,6 C 12,1 C 13,0 C 96 % 0 % 1022 hPa 0,0 l/m 0,0 km/h (0 Bft) 0 min
16.10.2016 02:05 22,5 C 12,1 C 13,1 C 96 % 0 % 1022 hPa 0,0 l/m 0,0 km/h (0 Bft) 0 min
16.10.2016 02:08 22,6 C 12,1 C 13,1 C 96 % 0 % 1022 hPa 0,0 l/m 0,0 km/h (0 Bft) 0 min
16.10.2016 02:11 22,6 C 12,1 C 13,1 C 96 % 0 % 1022 hPa 0,0 l/m 0,0 km/h (0 Bft) 0 min
16.10.2016 02:14 22,6 C 12,1 C 13,1 C 96 % 0 % 1022 hPa 0,0 l/m 0,0 km/h (0 Bft) 0 min
16.10.2016 02:17 22,6 C 12,1 C 13,1 C 96 % 0 % 1022 hPa 0,0 l/m 0,0 km/h (0 Bft) 0 min
16.10.2016 02:20 22,6 C 12,1 C 13,1 C 96 % 0 % 1022 hPa 0,0 l/m 0,0 km/h (0 Bft) 0 min
16.10.2016 02:23 22,5 C 12,1 C 13,1 C 96 % 0 % 1022 hPa 0,0 l/m 0,0 km/h (0 Bft) 0 min
16.10.2016 02:26 22,5 C 12,1 C 13,0 C 96 % 0 % 1022 hPa 0,0 l/m 0,0 km/h (0 Bft) 0 min
16.10.2016 02:29 22,5 C 12,1 C 13,0 C 96 % 0 % 1022 hPa 0,0 l/m 0,0 km/h (0 Bft) 0 min
16.10.2016 02:32 22,5 C 12,1 C 13,0 C 96 % 0 % 1022 hPa 0,0 l/m 0,0 km/h (0 Bft) 0 min
16.10.2016 02:35 22,5 C 12,0 C 13,0 C 96 % 0 % 1022 hPa 0,0 l/m 0,0 km/h (0 Bft) 0 min
16.10.2016 02:38 22,6 C 12,0 C 12,9 C 96 % 0 % 1022 hPa 0,0 l/m 0,0 km/h (0 Bft) 0 min
16.10.2016 02:41 22,5 C 12,0 C 12,9 C 96 % 0 % 1022 hPa 0,0 l/m 0,0 km/h (0 Bft) 0 min
16.10.2016 02:44 22,5 C 12,0 C 13,0 C 96 % 0 % 1022 hPa 0,0 l/m 0,0 km/h (0 Bft) 0 min
16.10.2016 02:47 22,5 C 12,0 C 13,0 C 97 % 0 % 1022 hPa 0,0 l/m 0,0 km/h (0 Bft) 0 min
16.10.2016 02:51 22,5 C 12,0 C 13,0 C 97 % 0 % 1022 hPa 0,0 l/m 0,0 km/h (0 Bft) 0 min
16.10.2016 02:54 22,5 C 11,9 C 13,0 C 97 % 0 % 1022 hPa 0,0 l/m 0,0 km/h (0 Bft) 0 min
16.10.2016 02:57 22,5 C 11,9 C 12,9 C 97 % 0 % 1022 hPa 0,0 l/m 0,0 km/h (0 Bft) 0 min
16.10.2016 03:00 22,5 C 11,9 C 12,9 C 97 % 0 % 1022 hPa 0,0 l/m 0,0 km/h (0 Bft) 0 min
16.10.2016 03:03 22,5 C 11,8 C 12,9 C 97 % 0 % 1022 hPa 0,0 l/m 0,0 km/h (0 Bft) 0 min
16.10.2016 03:06 22,5 C 11,8 C 12,9 C 97 % 0 % 1022 hPa 0,0 l/m 0,0 km/h (0 Bft) 0 min
16.10.2016 03:09 22,5 C 11,8 C 12,9 C 97 % 0 % 1022 hPa 0,0 l/m 0,0 km/h (0 Bft) 0 min
16.10.2016 03:12 22,5 C 11,8 C 12,9 C 97 % 0 % 1022 hPa 0,0 l/m 0,0 km/h (0 Bft) 0 min
16.10.2016 03:15 22,5 C 11,8 C 12,8 C 97 % 0 % 1022 hPa 0,0 l/m 0,0 km/h (0 Bft) 0 min
16.10.2016 03:18 22,5 C 11,8 C 12,8 C 97 % 0 % 1022 hPa 0,0 l/m 0,0 km/h (0 Bft) 0 min
16.10.2016 03:21 22,5 C 11,8 C 12,8 C 97 % 0 % 1022 hPa 0,0 l/m 0,0 km/h (0 Bft) 0 min
16.10.2016 03:24 22,5 C 11,7 C 12,9 C 97 % 0 % 1022 hPa 0,0 l/m 0,0 km/h (0 Bft) 0 min
16.10.2016 03:27 22,5 C 11,7 C 12,9 C 97 % 0 % 1022 hPa 0,0 l/m 0,0 km/h (0 Bft) 0 min
16.10.2016 03:30 22,5 C 11,6 C 12,8 C 97 % 0 % 1022 hPa 0,0 l/m 0,0 km/h (0 Bft) 0 min
16.10.2016 03:33 22,5 C 11,6 C 12,8 C 97 % 0 % 1022 hPa 0,0 l/m 0,0 km/h (0 Bft) 0 min
16.10.2016 03:36 22,5 C 11,6 C 12,8 C 97 % 0 % 1022 hPa 0,0 l/m 0,0 km/h (0 Bft) 0 min
16.10.2016 03:39 22,5 C 11,6 C 12,8 C 97 % 0 % 1022 hPa 0,0 l/m 0,0 km/h (0 Bft) 0 min
16.10.2016 03:42 22,6 C 11,6 C 12,8 C 97 % 0 % 1022 hPa 0,0 l/m 0,0 km/h (0 Bft) 0 min
16.10.2016 03:45 22,6 C 11,5 C 12,7 C 97 % 0 % 1022 hPa 0,0 l/m 0,9 km/h (0 Bft) 0 min
16.10.2016 03:48 22,6 C 11,4 C 12,5 C 97 % 0 % 1022 hPa 0,0 l/m 1,8 km/h (1 Bft) 0 min
16.10.2016 03:51 22,5 C 11,3 C 12,5 C 97 % 0 % 1022 hPa 0,0 l/m 0,0 km/h (0 Bft) 0 min
16.10.2016 03:54 22,5 C 11,3 C 12,5 C 97 % 0 % 1022 hPa 0,0 l/m 0,0 km/h (0 Bft) 0 min
16.10.2016 03:57 22,5 C 11,3 C 12,6 C 97 % 0 % 1022 hPa 0,0 l/m 0,0 km/h (0 Bft) 0 min
16.10.2016 04:00 22,5 C 11,3 C 12,6 C 97 % 0 % 1022 hPa 0,0 l/m 0,0 km/h (0 Bft) 0 min
16.10.2016 04:03 22,5 C 11,3 C 12,6 C 97 % 0 % 1022 hPa 0,0 l/m 0,0 km/h (0 Bft) 0 min
16.10.2016 04:06 22,5 C 11,3 C 12,6 C 97 % 0 % 1022 hPa 0,0 l/m 0,0 km/h (0 Bft) 0 min
16.10.2016 04:09 22,5 C 11,2 C 12,6 C 97 % 0 % 1022 hPa 0,0 l/m 0,0 km/h (0 Bft) 0 min
16.10.2016 04:12 22,5 C 11,2 C 12,6 C 97 % 0 % 1022 hPa 0,0 l/m 0,0 km/h (0 Bft) 0 min
16.10.2016 04:15 22,5 C 11,2 C 12,5 C 97 % 0 % 1022 hPa 0,0 l/m 0,0 km/h (0 Bft) 0 min
16.10.2016 04:18 22,5 C 11,2 C 12,6 C 97 % 0 % 1022 hPa 0,0 l/m 0,0 km/h (0 Bft) 0 min
16.10.2016 04:21 22,5 C 11,0 C 12,5 C 97 % 0 % 1022 hPa 0,0 l/m 0,0 km/h (0 Bft) 0 min
16.10.2016 04:24 22,5 C 11,0 C 12,5 C 97 % 0 % 1022 hPa 0,0 l/m 0,0 km/h (0 Bft) 0 min
16.10.2016 04:27 22,4 C 11,0 C 12,5 C 97 % 0 % 1022 hPa 0,0 l/m 0,0 km/h (0 Bft) 0 min
16.10.2016 04:30 22,5 C 10,9 C 12,4 C 97 % 0 % 1022 hPa 0,0 l/m 0,0 km/h (0 Bft) 0 min
16.10.2016 04:33 22,4 C 10,9 C 12,5 C 97 % 0 % 1022 hPa 0,0 l/m 0,0 km/h (0 Bft) 0 min
16.10.2016 04:36 22,4 C 10,9 C 12,2 C 97 % 0 % 1022 hPa 0,0 l/m 0,0 km/h (0 Bft) 0 min
16.10.2016 04:39 22,4 C 10,8 C 12,2 C 97 % 0 % 1022 hPa 0,0 l/m 0,0 km/h (0 Bft) 0 min
16.10.2016 04:42 22,4 C 10,8 C 12,0 C 97 % 0 % 1022 hPa 0,0 l/m 0,0 km/h (0 Bft) 0 min
16.10.2016 04:45 22,4 C 10,7 C 12,2 C 97 % 0 % 1022 hPa 0,0 l/m 0,0 km/h (0 Bft) 0 min
16.10.2016 04:48 22,4 C 10,7 C 12,2 C 97 % 0 % 1022 hPa 0,0 l/m 0,0 km/h (0 Bft) 0 min
16.10.2016 04:51 22,5 C 10,7 C 12,2 C 97 % 0 % 1022 hPa 0,0 l/m 0,0 km/h (0 Bft) 0 min
16.10.2016 04:54 22,4 C 10,6 C 11,9 C 97 % 0 % 1022 hPa 0,0 l/m 0,0 km/h (0 Bft) 0 min
16.10.2016 04:57 22,4 C 10,6 C 11,9 C 97 % 0 % 1022 hPa 0,0 l/m 0,0 km/h (0 Bft) 0 min
16.10.2016 05:00 22,4 C 10,5 C 11,9 C 96 % 0 % 1022 hPa 0,0 l/m 1,2 km/h (1 Bft) 0 min
16.10.2016 05:03 22,4 C 10,5 C 11,8 C 96 % 0 % 1022 hPa 0,0 l/m 0,3 km/h (0 Bft) 0 min
16.10.2016 05:06 22,4 C 10,2 C 11,6 C 96 % 0 % 1022 hPa 0,3 l/m 0,0 km/h (0 Bft) 0 min
16.10.2016 05:09 22,4 C 10,0 C 11,8 C 96 % 0 % 1022 hPa 0,0 l/m 0,0 km/h (0 Bft) 0 min
16.10.2016 05:12 22,4 C 10,0 C 11,8 C 96 % 0 % 1022 hPa 0,0 l/m 0,0 km/h (0 Bft) 0 min
16.10.2016 05:15 22,4 C 10,0 C 11,6 C 96 % 0 % 1022 hPa 0,0 l/m 0,0 km/h (0 Bft) 0 min
16.10.2016 05:18 22,4 C 10,0 C 11,5 C 96 % 0 % 1022 hPa 0,0 l/m 0,0 km/h (0 Bft) 0 min
16.10.2016 05:21 22,4 C 9,9 C 11,8 C 96 % 0 % 1023 hPa 0,0 l/m 0,0 km/h (0 Bft) 0 min
16.10.2016 05:24 22,4 C 9,9 C 11,9 C 96 % 0 % 1023 hPa 0,0 l/m 0,0 km/h (0 Bft) 0 min
16.10.2016 05:27 22,4 C 9,9 C 11,9 C 96 % 0 % 1023 hPa 0,0 l/m 0,0 km/h (0 Bft) 0 min
16.10.2016 05:30 22,4 C 9,9 C 11,9 C 96 % 0 % 1023 hPa 0,0 l/m 0,0 km/h (0 Bft) 0 min
16.10.2016 05:33 22,4 C 9,9 C 11,7 C 96 % 0 % 1023 hPa 0,0 l/m 0,2 km/h (0 Bft) 0 min
16.10.2016 05:36 22,4 C 10,0 C 11,7 C 96 % 0 % 1023 hPa 0,0 l/m 0,0 km/h (0 Bft) 0 min
16.10.2016 05:39 22,4 C 9,9 C 11,7 C 96 % 0 % 1023 hPa 0,0 l/m 0,0 km/h (0 Bft) 0 min
16.10.2016 05:42 22,4 C 9,8 C 11,8 C 96 % 0 % 1023 hPa 0,0 l/m 0,0 km/h (0 Bft) 0 min
16.10.2016 05:45 22,4 C 9,8 C 11,6 C 96 % 0 % 1023 hPa 0,0 l/m 0,0 km/h (0 Bft) 0 min
16.10.2016 05:48 22,4 C 9,6 C 11,4 C 96 % 0 % 1023 hPa 0,0 l/m 0,0 km/h (0 Bft) 0 min
16.10.2016 05:51 22,4 C 9,6 C 11,3 C 96 % 0 % 1023 hPa 0,0 l/m 0,0 km/h (0 Bft) 0 min
16.10.2016 05:54 22,4 C 9,6 C 11,5 C 96 % 0 % 1023 hPa 0,0 l/m 0,0 km/h (0 Bft) 0 min
16.10.2016 05:57 22,4 C 9,6 C 11,5 C 96 % 0 % 1023 hPa 0,0 l/m 0,0 km/h (0 Bft) 0 min
16.10.2016 06:00 22,4 C 9,6 C 11,7 C 96 % 0 % 1023 hPa 0,0 l/m 0,0 km/h (0 Bft) 0 min
16.10.2016 06:03 22,4 C 9,6 C 11,7 C 96 % 0 % 1023 hPa 0,0 l/m 0,0 km/h (0 Bft) 0 min
16.10.2016 06:06 22,4 C 9,6 C 11,6 C 96 % 0 % 1023 hPa 0,0 l/m 0,0 km/h (0 Bft) 0 min
16.10.2016 06:09 22,4 C 9,6 C 11,6 C 96 % 0 % 1023 hPa 0,0 l/m 0,0 km/h (0 Bft) 0 min
16.10.2016 06:12 22,4 C 9,6 C 11,5 C 96 % 0 % 1023 hPa 0,0 l/m 0,0 km/h (0 Bft) 0 min
16.10.2016 06:15 22,4 C 9,7 C 11,5 C 96 % 0 % 1023 hPa 0,0 l/m 0,0 km/h (0 Bft) 0 min
16.10.2016 06:18 22,4 C 9,7 C 11,5 C 96 % 0 % 1023 hPa 0,0 l/m 0,0 km/h (0 Bft) 0 min
16.10.2016 06:21 22,4 C 9,7 C 11,5 C 97 % 0 % 1023 hPa 0,0 l/m 0,0 km/h (0 Bft) 0 min
16.10.2016 06:24 22,4 C 9,7 C 11,6 C 97 % 0 % 1023 hPa 0,0 l/m 0,0 km/h (0 Bft) 0 min
16.10.2016 06:27 22,4 C 9,8 C 11,6 C 97 % 0 % 1023 hPa 0,0 l/m 0,0 km/h (0 Bft) 0 min
16.10.2016 06:30 22,4 C 9,8 C 11,6 C 97 % 0 % 1023 hPa 0,0 l/m 0,0 km/h (0 Bft) 0 min
16.10.2016 06:33 22,4 C 9,8 C 11,4 C 97 % 0 % 1023 hPa 0,0 l/m 0,0 km/h (0 Bft) 0 min
16.10.2016 06:36 22,4 C 9,8 C 11,4 C 97 % 0 % 1023 hPa 0,0 l/m 0,0 km/h (0 Bft) 0 min
16.10.2016 06:39 22,4 C 9,8 C 11,5 C 97 % 0 % 1023 hPa 0,0 l/m 0,0 km/h (0 Bft) 0 min
16.10.2016 06:42 22,4 C 9,8 C 11,5 C 97 % 0 % 1023 hPa 0,0 l/m 0,0 km/h (0 Bft) 0 min
16.10.2016 06:45 22,4 C 9,8 C 11,4 C 97 % 0 % 1023 hPa 0,0 l/m 0,0 km/h (0 Bft) 0 min
16.10.2016 06:48 22,4 C 9,8 C 11,4 C 97 % 0 % 1023 hPa 0,0 l/m 0,0 km/h (0 Bft) 0 min
16.10.2016 06:51 22,4 C 9,8 C 11,4 C 97 % 0 % 1023 hPa 0,0 l/m 0,0 km/h (0 Bft) 0 min
16.10.2016 06:54 22,4 C 9,8 C 11,5 C 97 % 0 % 1023 hPa 0,0 l/m 0,0 km/h (0 Bft) 0 min
16.10.2016 06:57 22,4 C 9,8 C 11,6 C 97 % 0 % 1023 hPa 0,0 l/m 0,0 km/h (0 Bft) 0 min
16.10.2016 07:00 22,4 C 9,9 C 11,6 C 97 % 0 % 1023 hPa 0,0 l/m 0,0 km/h (0 Bft) 0 min
16.10.2016 07:03 22,4 C 10,0 C 11,5 C 97 % 0 % 1023 hPa 0,0 l/m 0,0 km/h (0 Bft) 0 min
16.10.2016 07:06 22,4 C 10,0 C 11,4 C 97 % 0 % 1023 hPa 0,0 l/m 0,0 km/h (0 Bft) 0 min
16.10.2016 07:09 22,4 C 9,9 C 11,4 C 97 % 0 % 1023 hPa 0,0 l/m 0,0 km/h (0 Bft) 0 min
16.10.2016 07:12 22,4 C 10,0 C 11,5 C 97 % 0 % 1023 hPa 0,0 l/m 0,0 km/h (0 Bft) 0 min
16.10.2016 07:15 22,4 C 9,9 C 11,4 C 97 % 0 % 1023 hPa 0,0 l/m 0,0 km/h (0 Bft) 0 min
16.10.2016 07:18 22,4 C 9,9 C 11,4 C 97 % 0 % 1023 hPa 0,0 l/m 0,0 km/h (0 Bft) 0 min
16.10.2016 07:21 22,4 C 9,9 C 11,5 C 97 % 0 % 1023 hPa 0,0 l/m 0,0 km/h (0 Bft) 0 min
16.10.2016 07:24 22,4 C 9,9 C 11,5 C 97 % 0 % 1023 hPa 0,0 l/m 0,0 km/h (0 Bft) 0 min
16.10.2016 07:27 22,4 C 9,9 C 11,5 C 97 % 0 % 1023 hPa 0,0 l/m 0,0 km/h (0 Bft) 0 min
16.10.2016 07:30 22,4 C 9,9 C 11,5 C 97 % 1 % 1023 hPa 0,0 l/m 0,0 km/h (0 Bft) 0 min
16.10.2016 07:33 22,4 C 9,9 C 11,5 C 97 % 1 % 1023 hPa 0,0 l/m 1,5 km/h (1 Bft) 0 min
16.10.2016 07:36 22,4 C 9,9 C 11,5 C 97 % 1 % 1023 hPa 0,0 l/m 1,2 km/h (1 Bft) 0 min
16.10.2016 07:39 22,4 C 9,9 C 11,5 C 97 % 1 % 1023 hPa 0,0 l/m 0,0 km/h (0 Bft) 0 min
16.10.2016 07:42 22,4 C 9,9 C 11,5 C 97 % 2 % 1023 hPa 0,0 l/m 0,0 km/h (0 Bft) 0 min
16.10.2016 07:45 22,4 C 10,0 C 11,5 C 97 % 3 % 1023 hPa 0,0 l/m 0,0 km/h (0 Bft) 0 min
16.10.2016 07:48 22,4 C 10,0 C 11,5 C 97 % 3 % 1023 hPa 0,0 l/m 0,0 km/h (0 Bft) 0 min
16.10.2016 07:51 22,4 C 10,0 C 11,5 C 97 % 3 % 1023 hPa 0,0 l/m 0,0 km/h (0 Bft) 0 min
16.10.2016 07:54 22,4 C 10,0 C 11,5 C 97 % 3 % 1023 hPa 0,0 l/m 0,0 km/h (0 Bft) 0 min
16.10.2016 07:57 22,4 C 10,0 C 11,4 C 98 % 3 % 1023 hPa 0,0 l/m 0,0 km/h (0 Bft) 0 min
16.10.2016 08:00 22,4 C 10,0 C 11,5 C 98 % 4 % 1023 hPa 0,0 l/m 0,6 km/h (0 Bft) 0 min
16.10.2016 08:03 22,4 C 10,1 C 11,5 C 98 % 5 % 1023 hPa 0,0 l/m 0,0 km/h (0 Bft) 0 min
16.10.2016 08:06 22,4 C 10,2 C 11,5 C 98 % 5 % 1023 hPa 0,0 l/m 0,0 km/h (0 Bft) 0 min
16.10.2016 08:09 22,4 C 10,1 C 11,6 C 98 % 6 % 1024 hPa 0,0 l/m 0,0 km/h (0 Bft) 0 min
16.10.2016 08:12 22,4 C 10,2 C 11,6 C 98 % 6 % 1024 hPa 0,0 l/m 0,0 km/h (0 Bft) 0 min
16.10.2016 08:15 22,4 C 10,2 C 11,5 C 98 % 7 % 1024 hPa 0,0 l/m 0,0 km/h (0 Bft) 0 min
16.10.2016 08:18 22,4 C 10,1 C 11,5 C 98 % 7 % 1024 hPa 0,0 l/m 0,0 km/h (0 Bft) 0 min
16.10.2016 08:21 22,4 C 10,2 C 11,5 C 98 % 8 % 1024 hPa 0,0 l/m 3,8 km/h (1 Bft) 0 min
16.10.2016 08:24 22,4 C 10,2 C 11,5 C 98 % 9 % 1024 hPa 0,0 l/m 2,5 km/h (1 Bft) 0 min
16.10.2016 08:27 22,4 C 10,2 C 11,5 C 98 % 9 % 1024 hPa 0,0 l/m 1,9 km/h (1 Bft) 0 min
16.10.2016 08:30 22,4 C 10,2 C 11,5 C 98 % 8 % 1024 hPa 0,0 l/m 2,0 km/h (1 Bft) 0 min
16.10.2016 08:33 22,4 C 10,2 C 11,5 C 98 % 9 % 1024 hPa 0,0 l/m 1,8 km/h (1 Bft) 0 min
16.10.2016 08:36 22,3 C 10,2 C 11,5 C 98 % 10 % 1024 hPa 0,0 l/m 0,0 km/h (0 Bft) 0 min
16.10.2016 08:39 22,3 C 10,2 C 11,5 C 98 % 10 % 1024 hPa 0,0 l/m 0,0 km/h (0 Bft) 0 min
16.10.2016 08:42 22,4 C 10,2 C 11,6 C 98 % 10 % 1024 hPa 0,0 l/m 0,0 km/h (0 Bft) 0 min
16.10.2016 08:45 22,4 C 10,3 C 11,5 C 98 % 12 % 1024 hPa 0,0 l/m 0,0 km/h (0 Bft) 0 min
16.10.2016 08:48 22,4 C 10,3 C 11,6 C 98 % 15 % 1024 hPa 0,0 l/m 0,0 km/h (0 Bft) 0 min
16.10.2016 08:51 22,4 C 10,4 C 11,6 C 98 % 16 % 1024 hPa 0,0 l/m 0,0 km/h (0 Bft) 0 min
16.10.2016 08:54 22,4 C 10,4 C 11,6 C 98 % 17 % 1024 hPa 0,0 l/m 0,0 km/h (0 Bft) 0 min
16.10.2016 08:57 22,4 C 10,5 C 11,6 C 98 % 15 % 1024 hPa 0,0 l/m 0,0 km/h (0 Bft) 0 min
16.10.2016 09:00 22,4 C 10,5 C 11,7 C 98 % 16 % 1024 hPa 0,0 l/m 0,0 km/h (0 Bft) 0 min
16.10.2016 09:03 22,4 C 10,4 C 11,6 C 98 % 16 % 1024 hPa 0,0 l/m 0,1 km/h (0 Bft) 0 min
16.10.2016 09:06 22,4 C 10,4 C 11,6 C 97 % 17 % 1024 hPa 0,0 l/m 0,0 km/h (0 Bft) 0 min
16.10.2016 09:09 22,4 C 10,4 C 11,7 C 98 % 17 % 1024 hPa 0,0 l/m 0,0 km/h (0 Bft) 0 min
16.10.2016 09:12 22,4 C 10,5 C 11,7 C 97 % 17 % 1024 hPa 0,0 l/m 0,2 km/h (0 Bft) 0 min
16.10.2016 09:15 22,4 C 10,4 C 11,7 C 97 % 19 % 1024 hPa 0,0 l/m 0,4 km/h (0 Bft) 0 min
16.10.2016 09:18 22,4 C 10,5 C 11,7 C 97 % 21 % 1024 hPa 0,0 l/m 0,0 km/h (0 Bft) 0 min
16.10.2016 09:21 22,4 C 10,6 C 11,8 C 98 % 21 % 1024 hPa 0,0 l/m 1,6 km/h (1 Bft) 0 min
16.10.2016 09:24 22,4 C 10,6 C 11,8 C 98 % 23 % 1024 hPa 0,0 l/m 0,1 km/h (0 Bft) 0 min
16.10.2016 09:27 22,4 C 10,6 C 11,8 C 98 % 26 % 1024 hPa 0,0 l/m 1,2 km/h (1 Bft) 0 min
16.10.2016 09:30 22,4 C 10,6 C 11,8 C 98 % 25 % 1024 hPa 0,0 l/m 0,3 km/h (0 Bft) 0 min
16.10.2016 09:33 22,4 C 10,6 C 11,8 C 98 % 25 % 1024 hPa 0,0 l/m 0,0 km/h (0 Bft) 0 min
16.10.2016 09:36 22,4 C 10,7 C 11,8 C 98 % 24 % 1024 hPa 0,0 l/m 0,0 km/h (0 Bft) 0 min
16.10.2016 09:39 22,4 C 10,8 C 11,9 C 98 % 23 % 1024 hPa 0,0 l/m 4,0 km/h (1 Bft) 0 min
16.10.2016 09:42 22,4 C 10,8 C 11,9 C 98 % 21 % 1024 hPa 0,0 l/m 4,0 km/h (1 Bft) 0 min
16.10.2016 09:45 22,4 C 10,8 C 11,8 C 98 % 23 % 1024 hPa 0,0 l/m 4,0 km/h (1 Bft) 0 min
16.10.2016 09:48 22,4 C 10,6 C 11,9 C 98 % 23 % 1024 hPa 0,0 l/m 0,0 km/h (0 Bft) 0 min
16.10.2016 09:51 22,4 C 10,6 C 11,9 C 98 % 22 % 1024 hPa 0,0 l/m 0,0 km/h (0 Bft) 0 min
16.10.2016 09:54 22,4 C 10,6 C 11,9 C 98 % 23 % 1024 hPa 0,0 l/m 0,0 km/h (0 Bft) 0 min
16.10.2016 09:57 22,4 C 10,8 C 11,9 C 98 % 23 % 1024 hPa 0,0 l/m 0,0 km/h (0 Bft) 0 min
16.10.2016 10:00 22,4 C 10,9 C 12,0 C 98 % 23 % 1024 hPa 0,0 l/m 0,0 km/h (0 Bft) 0 min
16.10.2016 10:03 22,4 C 10,9 C 11,9 C 98 % 22 % 1024 hPa 0,0 l/m 0,1 km/h (0 Bft) 0 min
16.10.2016 10:06 22,4 C 10,7 C 11,9 C 98 % 22 % 1024 hPa 0,0 l/m 0,0 km/h (0 Bft) 0 min
16.10.2016 10:09 22,4 C 10,7 C 11,9 C 98 % 22 % 1025 hPa 0,0 l/m 0,3 km/h (0 Bft) 0 min
16.10.2016 10:12 22,4 C 10,8 C 11,9 C 98 % 22 % 1025 hPa 0,0 l/m 0,0 km/h (0 Bft) 0 min
16.10.2016 10:15 22,4 C 10,8 C 12,0 C 98 % 22 % 1025 hPa 0,0 l/m 0,1 km/h (0 Bft) 0 min
16.10.2016 10:18 22,4 C 10,9 C 12,0 C 98 % 24 % 1025 hPa 0,0 l/m 1,5 km/h (1 Bft) 0 min
16.10.2016 10:21 22,4 C 11,0 C 12,0 C 98 % 26 % 1025 hPa 0,0 l/m 0,0 km/h (0 Bft) 0 min
16.10.2016 10:24 22,4 C 10,9 C 12,0 C 98 % 29 % 1025 hPa 0,0 l/m 0,0 km/h (0 Bft) 0 min
16.10.2016 10:27 22,4 C 11,0 C 12,0 C 98 % 33 % 1025 hPa 0,0 l/m 0,0 km/h (0 Bft) 0 min
16.10.2016 10:30 22,4 C 11,1 C 12,1 C 98 % 32 % 1025 hPa 0,0 l/m 0,5 km/h (0 Bft) 0 min
16.10.2016 10:33 22,4 C 11,1 C 12,1 C 98 % 31 % 1025 hPa 0,0 l/m 0,3 km/h (0 Bft) 0 min
16.10.2016 10:36 22,4 C 11,2 C 12,1 C 98 % 32 % 1025 hPa 0,0 l/m 0,0 km/h (0 Bft) 0 min
16.10.2016 10:39 22,4 C 11,3 C 12,2 C 98 % 34 % 1025 hPa 0,0 l/m 0,0 km/h (0 Bft) 0 min
16.10.2016 10:42 22,4 C 11,4 C 12,3 C 98 % 35 % 1025 hPa 0,0 l/m 0,0 km/h (0 Bft) 0 min
16.10.2016 10:45 22,4 C 11,6 C 12,3 C 98 % 42 % 1025 hPa 0,0 l/m 0,0 km/h (0 Bft) 0 min
16.10.2016 10:48 22,4 C 11,6 C 12,3 C 98 % 50 % 1025 hPa 0,0 l/m 3,3 km/h (1 Bft) 0 min
16.10.2016 10:51 22,4 C 11,6 C 12,3 C 97 % 44 % 1025 hPa 0,0 l/m 1,9 km/h (1 Bft) 0 min
16.10.2016 10:54 22,4 C 11,6 C 12,4 C 97 % 65 % 1025 hPa 0,0 l/m 0,0 km/h (0 Bft) 3 min
16.10.2016 10:57 22,4 C 11,7 C 12,5 C 97 % 66 % 1025 hPa 0,0 l/m 0,3 km/h (0 Bft) 3 min
16.10.2016 11:00 22,4 C 11,8 C 12,4 C 97 % 69 % 1025 hPa 0,0 l/m 0,1 km/h (0 Bft) 3 min
16.10.2016 11:03 22,4 C 11,8 C 12,5 C 96 % 56 % 1025 hPa 0,0 l/m 0,0 km/h (0 Bft) 3 min
16.10.2016 11:06 22,4 C 12,0 C 12,5 C 97 % 51 % 1025 hPa 0,0 l/m 2,1 km/h (1 Bft) 0 min
16.10.2016 11:09 22,4 C 12,2 C 12,6 C 96 % 52 % 1025 hPa 0,0 l/m 0,1 km/h (0 Bft) 0 min
16.10.2016 11:12 22,4 C 12,2 C 12,7 C 96 % 52 % 1025 hPa 0,0 l/m 0,0 km/h (0 Bft) 0 min
16.10.2016 11:15 22,5 C 12,2 C 12,7 C 96 % 46 % 1025 hPa 0,0 l/m 0,0 km/h (0 Bft) 0 min
16.10.2016 11:18 22,4 C 12,4 C 12,8 C 93 % 45 % 1025 hPa 0,0 l/m 0,1 km/h (0 Bft) 0 min
16.10.2016 11:21 22,5 C 12,6 C 12,8 C 93 % 46 % 1025 hPa 0,0 l/m 0,3 km/h (0 Bft) 0 min
16.10.2016 11:24 22,5 C 12,6 C 12,7 C 93 % 45 % 1025 hPa 0,0 l/m 1,4 km/h (1 Bft) 0 min
16.10.2016 11:27 22,4 C 12,7 C 12,6 C 92 % 49 % 1025 hPa 0,0 l/m 2,7 km/h (1 Bft) 0 min
16.10.2016 11:30 22,6 C 12,8 C 12,7 C 91 % 49 % 1025 hPa 0,0 l/m 2,9 km/h (1 Bft) 0 min
16.10.2016 11:33 22,5 C 12,8 C 12,7 C 91 % 46 % 1025 hPa 0,0 l/m 0,0 km/h (0 Bft) 0 min
16.10.2016 11:36 22,5 C 13,1 C 12,7 C 91 % 46 % 1025 hPa 0,0 l/m 0,0 km/h (0 Bft) 0 min
16.10.2016 11:39 22,6 C 13,1 C 12,7 C 87 % 47 % 1025 hPa 0,0 l/m 3,6 km/h (1 Bft) 0 min
16.10.2016 11:42 22,6 C 13,3 C 12,8 C 90 % 50 % 1025 hPa 0,0 l/m 0,0 km/h (0 Bft) 0 min
16.10.2016 11:45 22,6 C 13,2 C 12,8 C 86 % 80 % 1025 hPa 0,0 l/m 0,0 km/h (0 Bft) 3 min
16.10.2016 11:48 22,5 C 13,4 C 12,9 C 87 % 80 % 1025 hPa 0,0 l/m 0,0 km/h (0 Bft) 3 min
16.10.2016 11:51 22,5 C 13,4 C 12,8 C 87 % 81 % 1025 hPa 0,0 l/m 0,2 km/h (0 Bft) 3 min
16.10.2016 11:54 22,6 C 13,6 C 13,0 C 85 % 81 % 1025 hPa 0,0 l/m 2,7 km/h (1 Bft) 3 min
16.10.2016 11:57 22,6 C 13,6 C 13,0 C 87 % 81 % 1025 hPa 0,0 l/m 2,7 km/h (1 Bft) 3 min
16.10.2016 12:00 22,6 C 13,6 C 12,9 C 87 % 81 % 1025 hPa 0,0 l/m 1,6 km/h (1 Bft) 3 min
16.10.2016 12:03 22,6 C 14,4 C 13,1 C 85 % 81 % 1025 hPa 0,0 l/m 3,9 km/h (1 Bft) 3 min
16.10.2016 12:06 22,6 C 14,8 C 13,3 C 85 % 81 % 1025 hPa 0,0 l/m 0,4 km/h (0 Bft) 3 min
16.10.2016 12:09 22,6 C 15,1 C 13,2 C 82 % 81 % 1025 hPa 0,0 l/m 0,0 km/h (0 Bft) 3 min
16.10.2016 12:12 22,6 C 15,3 C 13,2 C 82 % 81 % 1025 hPa 0,0 l/m 0,2 km/h (0 Bft) 3 min
16.10.2016 12:15 22,6 C 15,6 C 13,3 C 83 % 81 % 1025 hPa 0,0 l/m 3,9 km/h (1 Bft) 3 min
16.10.2016 12:18 22,6 C 15,4 C 13,3 C 80 % 81 % 1025 hPa 0,0 l/m 0,4 km/h (0 Bft) 3 min
16.10.2016 12:21 22,6 C 15,6 C 13,5 C 79 % 81 % 1025 hPa 0,0 l/m 0,1 km/h (0 Bft) 3 min
16.10.2016 12:24 22,6 C 15,6 C 14,2 C 82 % 81 % 1025 hPa 0,0 l/m 3,1 km/h (1 Bft) 3 min
16.10.2016 12:27 22,6 C 15,9 C 13,7 C 80 % 81 % 1025 hPa 0,0 l/m 3,1 km/h (1 Bft) 3 min
16.10.2016 12:30 22,6 C 15,8 C 14,2 C 79 % 81 % 1025 hPa 0,0 l/m 1,0 km/h (0 Bft) 3 min
16.10.2016 12:33 22,6 C 15,9 C 14,0 C 79 % 81 % 1025 hPa 0,0 l/m 5,3 km/h (1 Bft) 3 min
16.10.2016 12:36 22,6 C 16,4 C 14,2 C 79 % 81 % 1025 hPa 0,0 l/m 2,6 km/h (1 Bft) 3 min
16.10.2016 12:39 22,6 C 16,5 C 14,2 C 78 % 81 % 1025 hPa 0,0 l/m 6,3 km/h (2 Bft) 3 min
16.10.2016 12:42 22,6 C 16,5 C 13,8 C 76 % 81 % 1025 hPa 0,0 l/m 4,0 km/h (1 Bft) 3 min
16.10.2016 12:45 22,6 C 16,8 C 13,8 C 77 % 81 % 1025 hPa 0,0 l/m 0,4 km/h (0 Bft) 3 min
16.10.2016 12:48 22,6 C 16,6 C 14,0 C 73 % 81 % 1025 hPa 0,0 l/m 3,1 km/h (1 Bft) 3 min
16.10.2016 12:51 22,6 C 16,6 C 13,9 C 77 % 81 % 1025 hPa 0,0 l/m 0,3 km/h (0 Bft) 3 min
16.10.2016 12:54 22,6 C 16,6 C 13,9 C 75 % 81 % 1025 hPa 0,0 l/m 0,7 km/h (0 Bft) 3 min
16.10.2016 12:57 22,6 C 17,0 C 13,9 C 73 % 81 % 1025 hPa 0,0 l/m 4,2 km/h (1 Bft) 3 min
16.10.2016 13:00 22,6 C 17,2 C 15,0 C 73 % 81 % 1025 hPa 0,0 l/m 4,2 km/h (1 Bft) 3 min
16.10.2016 13:03 22,6 C 17,2 C 15,0 C 73 % 81 % 1024 hPa 0,0 l/m 6,1 km/h (2 Bft) 3 min
16.10.2016 13:06 22,6 C 17,6 C 14,5 C 71 % 81 % 1024 hPa 0,0 l/m 0,2 km/h (0 Bft) 3 min
16.10.2016 13:09 22,6 C 17,6 C 14,6 C 71 % 81 % 1024 hPa 0,0 l/m 1,7 km/h (1 Bft) 3 min
16.10.2016 13:12 22,6 C 17,7 C 14,3 C 72 % 81 % 1024 hPa 0,0 l/m 0,3 km/h (0 Bft) 3 min
16.10.2016 13:15 22,7 C 17,3 C 14,5 C 71 % 81 % 1024 hPa 0,0 l/m 2,4 km/h (1 Bft) 3 min
16.10.2016 13:18 22,7 C 16,8 C 14,9 C 70 % 80 % 1024 hPa 0,0 l/m 0,3 km/h (0 Bft) 3 min
16.10.2016 13:21 22,7 C 17,0 C 14,8 C 73 % 81 % 1024 hPa 0,0 l/m 2,9 km/h (1 Bft) 3 min
16.10.2016 13:24 22,7 C 17,3 C 15,9 C 71 % 81 % 1024 hPa 0,0 l/m 5,7 km/h (1 Bft) 3 min
16.10.2016 13:27 22,8 C 17,5 C 16,3 C 69 % 80 % 1024 hPa 0,0 l/m 5,3 km/h (1 Bft) 3 min
16.10.2016 13:30 22,8 C 17,7 C 15,5 C 67 % 80 % 1024 hPa 0,0 l/m 5,9 km/h (2 Bft) 3 min
16.10.2016 13:33 22,8 C 17,7 C 15,3 C 67 % 80 % 1024 hPa 0,0 l/m 5,9 km/h (2 Bft) 3 min
16.10.2016 13:36 22,8 C 17,7 C 16,0 C 67 % 80 % 1024 hPa 0,0 l/m 0,3 km/h (0 Bft) 3 min
16.10.2016 13:39 22,9 C 17,6 C 15,5 C 68 % 80 % 1024 hPa 0,0 l/m 3,2 km/h (1 Bft) 3 min
16.10.2016 13:42 23,0 C 17,8 C 16,0 C 71 % 80 % 1024 hPa 0,0 l/m 0,9 km/h (0 Bft) 3 min
16.10.2016 13:45 23,0 C 17,8 C 15,6 C 71 % 80 % 1024 hPa 0,0 l/m 2,5 km/h (1 Bft) 3 min
16.10.2016 13:48 23,0 C 18,0 C 15,8 C 69 % 80 % 1024 hPa 0,0 l/m 0,6 km/h (0 Bft) 3 min
16.10.2016 13:51 23,0 C 18,0 C 15,8 C 70 % 80 % 1024 hPa 0,0 l/m 0,6 km/h (0 Bft) 3 min
16.10.2016 13:54 23,1 C 18,4 C 16,0 C 69 % 80 % 1024 hPa 0,0 l/m 5,8 km/h (2 Bft) 3 min
16.10.2016 13:57 23,1 C 18,6 C 16,2 C 68 % 80 % 1024 hPa 0,0 l/m 7,0 km/h (2 Bft) 3 min
16.10.2016 14:00 23,1 C 18,5 C 17,8 C 67 % 80 % 1024 hPa 0,0 l/m 0,3 km/h (0 Bft) 3 min
16.10.2016 14:03 23,0 C 18,5 C 17,4 C 69 % 80 % 1024 hPa 0,0 l/m 1,8 km/h (1 Bft) 3 min
16.10.2016 14:06 23,0 C 18,6 C 17,2 C 67 % 80 % 1024 hPa 0,0 l/m 1,8 km/h (1 Bft) 3 min
16.10.2016 14:09 23,1 C 18,8 C 17,2 C 68 % 80 % 1024 hPa 0,0 l/m 6,7 km/h (2 Bft) 3 min
16.10.2016 14:12 23,1 C 18,6 C 16,7 C 65 % 80 % 1024 hPa 0,0 l/m 1,8 km/h (1 Bft) 3 min
16.10.2016 14:15 23,1 C 18,6 C 17,2 C 66 % 80 % 1024 hPa 0,0 l/m 5,7 km/h (1 Bft) 3 min
16.10.2016 14:18 23,1 C 19,0 C 17,7 C 65 % 80 % 1024 hPa 0,0 l/m 5,0 km/h (1 Bft) 3 min
16.10.2016 14:21 23,1 C 18,6 C 17,3 C 65 % 80 % 1024 hPa 0,0 l/m 5,9 km/h (2 Bft) 3 min
16.10.2016 14:24 23,1 C 18,8 C 17,9 C 67 % 80 % 1024 hPa 0,0 l/m 5,5 km/h (1 Bft) 3 min
16.10.2016 14:27 23,1 C 18,6 C 17,3 C 65 % 80 % 1024 hPa 0,0 l/m 1,2 km/h (1 Bft) 3 min
16.10.2016 14:30 23,1 C 18,9 C 18,5 C 67 % 80 % 1024 hPa 0,0 l/m 7,4 km/h (2 Bft) 3 min
16.10.2016 14:33 23,1 C 18,7 C 17,7 C 67 % 80 % 1024 hPa 0,0 l/m 7,8 km/h (2 Bft) 3 min
16.10.2016 14:36 23,1 C 19,0 C 18,0 C 66 % 80 % 1024 hPa 0,0 l/m 4,6 km/h (1 Bft) 3 min
16.10.2016 14:39 23,1 C 18,7 C 18,0 C 64 % 80 % 1024 hPa 0,0 l/m 0,1 km/h (0 Bft) 3 min
16.10.2016 14:42 23,2 C 18,6 C 17,8 C 65 % 80 % 1024 hPa 0,0 l/m 0,0 km/h (0 Bft) 3 min
16.10.2016 14:45 23,2 C 18,6 C 18,1 C 65 % 80 % 1024 hPa 0,0 l/m 1,9 km/h (1 Bft) 3 min
16.10.2016 14:48 23,2 C 19,0 C 18,6 C 67 % 80 % 1024 hPa 0,0 l/m 7,8 km/h (2 Bft) 3 min
16.10.2016 14:51 23,2 C 19,0 C 18,4 C 67 % 80 % 1024 hPa 0,0 l/m 5,6 km/h (1 Bft) 3 min
16.10.2016 14:54 23,2 C 18,6 C 18,2 C 64 % 80 % 1024 hPa 0,0 l/m 4,7 km/h (1 Bft) 3 min
16.10.2016 14:57 23,2 C 18,6 C 18,5 C 65 % 80 % 1024 hPa 0,0 l/m 4,3 km/h (1 Bft) 3 min
16.10.2016 15:00 23,2 C 18,6 C 18,2 C 66 % 80 % 1024 hPa 0,0 l/m 1,0 km/h (0 Bft) 3 min
16.10.2016 15:03 23,2 C 18,5 C 18,4 C 65 % 80 % 1024 hPa 0,0 l/m 2,6 km/h (1 Bft) 3 min
16.10.2016 15:06 23,2 C 18,4 C 18,5 C 66 % 80 % 1024 hPa 0,0 l/m 0,6 km/h (0 Bft) 3 min
16.10.2016 15:09 23,2 C 18,6 C 18,6 C 67 % 80 % 1024 hPa 0,0 l/m 6,1 km/h (2 Bft) 3 min
16.10.2016 15:12 23,2 C 18,8 C 19,0 C 64 % 80 % 1024 hPa 0,0 l/m 5,8 km/h (2 Bft) 3 min
16.10.2016 15:15 23,2 C 18,8 C 18,9 C 66 % 80 % 1024 hPa 0,0 l/m 0,5 km/h (0 Bft) 3 min
16.10.2016 15:18 23,2 C 18,7 C 18,6 C 64 % 80 % 1024 hPa 0,0 l/m 0,8 km/h (0 Bft) 3 min
16.10.2016 15:21 23,2 C 18,8 C 18,7 C 64 % 80 % 1024 hPa 0,0 l/m 1,3 km/h (1 Bft) 3 min
16.10.2016 15:24 23,2 C 18,8 C 18,7 C 64 % 80 % 1024 hPa 0,0 l/m 8,7 km/h (2 Bft) 3 min
16.10.2016 15:27 23,2 C 18,8 C 18,5 C 61 % 80 % 1024 hPa 0,0 l/m 8,5 km/h (2 Bft) 3 min
16.10.2016 15:30 23,2 C 18,7 C 18,5 C 62 % 80 % 1024 hPa 0,0 l/m 4,5 km/h (1 Bft) 3 min
16.10.2016 15:33 23,2 C 18,7 C 18,6 C 62 % 80 % 1024 hPa 0,0 l/m 4,5 km/h (1 Bft) 3 min
16.10.2016 15:36 23,3 C 18,7 C 18,4 C 64 % 80 % 1024 hPa 0,0 l/m 0,1 km/h (0 Bft) 3 min
16.10.2016 15:39 23,3 C 18,6 C 18,5 C 64 % 80 % 1024 hPa 0,0 l/m 0,2 km/h (0 Bft) 3 min
16.10.2016 15:42 23,2 C 18,6 C 18,4 C 64 % 80 % 1024 hPa 0,0 l/m 0,6 km/h (0 Bft) 3 min
16.10.2016 15:45 23,3 C 18,8 C 18,4 C 65 % 80 % 1024 hPa 0,0 l/m 4,9 km/h (1 Bft) 3 min
16.10.2016 15:48 23,3 C 18,8 C 18,2 C 66 % 81 % 1024 hPa 0,0 l/m 5,5 km/h (1 Bft) 3 min
16.10.2016 15:51 23,3 C 18,8 C 18,3 C 64 % 80 % 1024 hPa 0,0 l/m 6,9 km/h (2 Bft) 3 min
16.10.2016 15:54 23,2 C 18,8 C 18,2 C 63 % 81 % 1024 hPa 0,0 l/m 6,2 km/h (2 Bft) 3 min
16.10.2016 15:57 23,3 C 18,8 C 18,2 C 64 % 81 % 1024 hPa 0,0 l/m 7,8 km/h (2 Bft) 3 min
16.10.2016 16:00 23,3 C 18,7 C 18,4 C 63 % 81 % 1024 hPa 0,0 l/m 2,4 km/h (1 Bft) 3 min
16.10.2016 16:03 23,3 C 18,8 C 18,2 C 64 % 81 % 1024 hPa 0,0 l/m 0,2 km/h (0 Bft) 3 min
16.10.2016 16:06 23,3 C 18,8 C 18,1 C 64 % 81 % 1024 hPa 0,0 l/m 6,8 km/h (2 Bft) 3 min
16.10.2016 16:09 23,4 C 18,8 C 18,1 C 62 % 81 % 1024 hPa 0,0 l/m 5,4 km/h (1 Bft) 3 min
16.10.2016 16:12 23,3 C 18,7 C 18,1 C 62 % 73 % 1024 hPa 0,0 l/m 6,0 km/h (2 Bft) 3 min
16.10.2016 16:15 23,3 C 18,8 C 18,2 C 62 % 46 % 1024 hPa 0,0 l/m 5,8 km/h (2 Bft) 3 min
16.10.2016 16:18 23,4 C 18,8 C 18,1 C 63 % 72 % 1024 hPa 0,0 l/m 8,5 km/h (2 Bft) 3 min
16.10.2016 16:21 23,3 C 18,7 C 18,2 C 63 % 79 % 1024 hPa 0,0 l/m 6,2 km/h (2 Bft) 3 min
16.10.2016 16:24 23,3 C 18,7 C 18,1 C 63 % 42 % 1024 hPa 0,0 l/m 5,2 km/h (1 Bft) 3 min
16.10.2016 16:27 23,3 C 18,6 C 18,0 C 65 % 52 % 1024 hPa 0,0 l/m 4,9 km/h (1 Bft) 3 min
16.10.2016 16:30 23,3 C 18,5 C 17,9 C 64 % 33 % 1024 hPa 0,0 l/m 4,8 km/h (1 Bft) 3 min
16.10.2016 16:33 23,3 C 18,5 C 17,9 C 65 % 29 % 1024 hPa 0,0 l/m 5,6 km/h (1 Bft) 0 min
16.10.2016 16:36 23,3 C 18,4 C 17,9 C 64 % 28 % 1024 hPa 0,0 l/m 5,6 km/h (1 Bft) 0 min
16.10.2016 16:39 23,2 C 18,4 C 17,9 C 65 % 51 % 1024 hPa 0,0 l/m 7,4 km/h (2 Bft) 3 min
16.10.2016 16:42 23,2 C 18,4 C 18,0 C 65 % 34 % 1024 hPa 0,0 l/m 6,6 km/h (2 Bft) 3 min
16.10.2016 16:45 23,2 C 18,3 C 18,0 C 66 % 72 % 1024 hPa 0,0 l/m 6,0 km/h (2 Bft) 3 min
16.10.2016 16:48 23,1 C 18,3 C 17,9 C 66 % 42 % 1024 hPa 0,0 l/m 6,5 km/h (2 Bft) 3 min
16.10.2016 16:51 23,1 C 18,2 C 17,7 C 66 % 22 % 1024 hPa 0,0 l/m 5,0 km/h (1 Bft) 0 min
16.10.2016 16:54 23,1 C 18,2 C 17,7 C 67 % 22 % 1024 hPa 0,0 l/m 3,4 km/h (1 Bft) 0 min
16.10.2016 16:57 23,0 C 18,1 C 17,6 C 68 % 17 % 1024 hPa 0,0 l/m 3,6 km/h (1 Bft) 0 min
16.10.2016 17:00 23,0 C 18,0 C 17,6 C 68 % 17 % 1024 hPa 0,0 l/m 3,6 km/h (1 Bft) 0 min
16.10.2016 17:03 23,1 C 18,0 C 17,6 C 69 % 16 % 1024 hPa 0,0 l/m 5,0 km/h (1 Bft) 0 min
16.10.2016 17:06 23,0 C 17,9 C 17,5 C 69 % 15 % 1024 hPa 0,0 l/m 3,6 km/h (1 Bft) 0 min
16.10.2016 17:09 23,0 C 17,8 C 17,4 C 70 % 14 % 1024 hPa 0,0 l/m 3,0 km/h (1 Bft) 0 min
16.10.2016 17:12 23,0 C 17,7 C 17,3 C 70 % 14 % 1024 hPa 0,0 l/m 3,9 km/h (1 Bft) 0 min
16.10.2016 17:15 23,0 C 17,7 C 17,3 C 70 % 13 % 1024 hPa 0,0 l/m 0,7 km/h (0 Bft) 0 min
16.10.2016 17:18 23,0 C 17,5 C 17,1 C 71 % 13 % 1024 hPa 0,0 l/m 3,3 km/h (1 Bft) 0 min
16.10.2016 17:21 23,0 C 17,4 C 17,2 C 71 % 12 % 1024 hPa 0,0 l/m 3,1 km/h (1 Bft) 0 min
16.10.2016 17:24 23,0 C 17,4 C 17,1 C 71 % 12 % 1024 hPa 0,0 l/m 0,1 km/h (0 Bft) 0 min
16.10.2016 17:27 23,0 C 17,3 C 17,1 C 73 % 11 % 1024 hPa 0,0 l/m 0,1 km/h (0 Bft) 0 min
16.10.2016 17:30 23,0 C 17,2 C 17,0 C 74 % 10 % 1024 hPa 0,0 l/m 0,0 km/h (0 Bft) 0 min
16.10.2016 17:33 23,0 C 17,1 C 16,9 C 73 % 9 % 1024 hPa 0,0 l/m 0,0 km/h (0 Bft) 0 min
16.10.2016 17:36 23,0 C 17,0 C 16,9 C 74 % 9 % 1024 hPa 0,0 l/m 0,0 km/h (0 Bft) 0 min
16.10.2016 17:39 23,0 C 17,0 C 16,9 C 75 % 8 % 1024 hPa 0,0 l/m 0,0 km/h (0 Bft) 0 min
16.10.2016 17:42 23,0 C 17,0 C 16,8 C 75 % 7 % 1024 hPa 0,0 l/m 0,0 km/h (0 Bft) 0 min
16.10.2016 17:45 22,9 C 16,8 C 16,8 C 75 % 7 % 1024 hPa 0,0 l/m 0,0 km/h (0 Bft) 0 min
16.10.2016 17:48 22,9 C 16,7 C 16,7 C 77 % 6 % 1024 hPa 0,0 l/m 0,0 km/h (0 Bft) 0 min
16.10.2016 17:51 22,9 C 16,6 C 16,7 C 77 % 6 % 1024 hPa 0,0 l/m 0,0 km/h (0 Bft) 0 min
16.10.2016 17:54 22,8 C 16,5 C 16,6 C 78 % 5 % 1024 hPa 0,0 l/m 0,0 km/h (0 Bft) 0 min
16.10.2016 17:57 22,8 C 16,4 C 16,6 C 80 % 5 % 1024 hPa 0,0 l/m 0,0 km/h (0 Bft) 3 min
16.10.2016 18:00 22,8 C 16,4 C 16,6 C 80 % 4 % 1024 hPa 0,0 l/m 0,0 km/h (0 Bft) 3 min
16.10.2016 18:03 22,8 C 16,1 C 16,6 C 78 % 4 % 1024 hPa 0,0 l/m 0,0 km/h (0 Bft) 3 min
16.10.2016 18:06 22,8 C 16,0 C 16,4 C 80 % 3 % 1024 hPa 0,0 l/m 0,0 km/h (0 Bft) 0 min
16.10.2016 18:09 22,8 C 15,9 C 16,4 C 81 % 2 % 1024 hPa 0,0 l/m 0,0 km/h (0 Bft) 0 min
16.10.2016 18:12 22,9 C 15,7 C 16,3 C 81 % 2 % 1024 hPa 0,0 l/m 0,0 km/h (0 Bft) 0 min
16.10.2016 18:15 22,9 C 15,5 C 16,2 C 82 % 1 % 1024 hPa 0,0 l/m 0,0 km/h (0 Bft) 0 min
16.10.2016 18:18 22,9 C 15,4 C 16,2 C 82 % 1 % 1024 hPa 0,0 l/m 0,0 km/h (0 Bft) 0 min
16.10.2016 18:21 22,9 C 15,3 C 16,1 C 82 % 1 % 1024 hPa 0,0 l/m 0,0 km/h (0 Bft) 0 min
16.10.2016 18:24 22,9 C 15,2 C 16,1 C 83 % 1 % 1024 hPa 0,0 l/m 0,0 km/h (0 Bft) 0 min
16.10.2016 18:27 22,8 C 15,0 C 16,0 C 83 % 0 % 1024 hPa 0,0 l/m 0,0 km/h (0 Bft) 0 min
16.10.2016 18:30 22,9 C 15,0 C 15,9 C 84 % 0 % 1024 hPa 0,0 l/m 0,0 km/h (0 Bft) 0 min
16.10.2016 18:33 22,9 C 14,9 C 15,9 C 84 % 0 % 1024 hPa 0,0 l/m 0,0 km/h (0 Bft) 0 min
16.10.2016 18:36 22,8 C 14,8 C 15,9 C 84 % 0 % 1024 hPa 0,0 l/m 0,0 km/h (0 Bft) 0 min
16.10.2016 18:39 22,8 C 14,6 C 15,8 C 85 % 0 % 1024 hPa 0,0 l/m 0,0 km/h (0 Bft) 0 min
16.10.2016 18:42 22,8 C 14,5 C 15,8 C 85 % 0 % 1024 hPa 0,0 l/m 0,0 km/h (0 Bft) 0 min
16.10.2016 18:45 22,8 C 14,4 C 15,7 C 85 % 0 % 1024 hPa 0,0 l/m 0,0 km/h (0 Bft) 0 min
16.10.2016 18:48 22,8 C 14,3 C 15,6 C 85 % 0 % 1024 hPa 0,0 l/m 0,0 km/h (0 Bft) 0 min
16.10.2016 18:51 22,8 C 14,3 C 15,5 C 85 % 0 % 1024 hPa 0,0 l/m 0,4 km/h (0 Bft) 0 min
16.10.2016 18:54 22,8 C 14,1 C 15,4 C 86 % 0 % 1024 hPa 0,0 l/m 0,0 km/h (0 Bft) 0 min
16.10.2016 18:57 22,8 C 14,0 C 15,4 C 86 % 0 % 1024 hPa 0,0 l/m 0,0 km/h (0 Bft) 0 min
16.10.2016 19:00 22,8 C 14,0 C 15,3 C 86 % 0 % 1024 hPa 0,0 l/m 1,0 km/h (0 Bft) 0 min
16.10.2016 19:03 22,8 C 13,7 C 15,3 C 87 % 0 % 1024 hPa 0,0 l/m 0,0 km/h (0 Bft) 0 min
16.10.2016 19:06 22,8 C 13,6 C 15,3 C 87 % 0 % 1024 hPa 0,0 l/m 0,0 km/h (0 Bft) 0 min
16.10.2016 19:09 22,8 C 13,7 C 15,3 C 87 % 0 % 1024 hPa 0,0 l/m 0,4 km/h (0 Bft) 0 min
16.10.2016 19:12 22,8 C 13,6 C 15,2 C 87 % 0 % 1024 hPa 0,0 l/m 3,0 km/h (1 Bft) 0 min
16.10.2016 19:15 22,8 C 13,6 C 15,0 C 87 % 0 % 1024 hPa 0,0 l/m 0,0 km/h (0 Bft) 0 min
16.10.2016 19:18 22,8 C 13,6 C 15,1 C 87 % 0 % 1024 hPa 0,0 l/m 0,0 km/h (0 Bft) 0 min
16.10.2016 19:21 22,8 C 13,5 C 15,1 C 87 % 0 % 1024 hPa 0,0 l/m 0,0 km/h (0 Bft) 0 min
16.10.2016 19:24 22,8 C 13,4 C 15,0 C 87 % 0 % 1024 hPa 0,0 l/m 0,3 km/h (0 Bft) 0 min
16.10.2016 19:27 22,8 C 13,3 C 14,9 C 87 % 0 % 1024 hPa 0,0 l/m 1,2 km/h (1 Bft) 0 min
16.10.2016 19:30 22,8 C 13,3 C 14,9 C 87 % 0 % 1024 hPa 0,0 l/m 0,0 km/h (0 Bft) 0 min
16.10.2016 19:33 22,8 C 13,2 C 14,8 C 87 % 0 % 1024 hPa 0,0 l/m 0,0 km/h (0 Bft) 0 min
16.10.2016 19:36 22,8 C 13,1 C 14,8 C 87 % 0 % 1024 hPa 0,0 l/m 0,0 km/h (0 Bft) 0 min
16.10.2016 19:39 22,8 C 13,1 C 14,8 C 87 % 0 % 1024 hPa 0,0 l/m 0,3 km/h (0 Bft) 0 min
16.10.2016 19:42 22,8 C 13,0 C 14,6 C 88 % 0 % 1024 hPa 0,0 l/m 0,0 km/h (0 Bft) 0 min
16.10.2016 19:45 22,8 C 13,0 C 14,7 C 88 % 0 % 1024 hPa 0,0 l/m 0,0 km/h (0 Bft) 0 min
16.10.2016 19:48 22,8 C 12,9 C 14,6 C 88 % 0 % 1024 hPa 0,0 l/m 0,0 km/h (0 Bft) 0 min
16.10.2016 19:51 22,8 C 12,8 C 14,5 C 88 % 0 % 1024 hPa 0,0 l/m 0,0 km/h (0 Bft) 0 min
16.10.2016 19:54 22,9 C 12,8 C 14,5 C 88 % 0 % 1024 hPa 0,0 l/m 0,0 km/h (0 Bft) 0 min
16.10.2016 19:57 22,9 C 12,7 C 14,4 C 88 % 0 % 1024 hPa 0,0 l/m 0,0 km/h (0 Bft) 0 min
16.10.2016 20:00 22,8 C 12,4 C 14,2 C 89 % 0 % 1024 hPa 0,0 l/m 0,0 km/h (0 Bft) 0 min
16.10.2016 20:03 22,8 C 12,3 C 14,2 C 89 % 0 % 1024 hPa 0,0 l/m 0,0 km/h (0 Bft) 0 min
16.10.2016 20:06 22,8 C 12,3 C 14,3 C 89 % 0 % 1024 hPa 0,0 l/m 0,0 km/h (0 Bft) 0 min
16.10.2016 20:09 22,8 C 12,1 C 14,3 C 90 % 0 % 1024 hPa 0,0 l/m 0,0 km/h (0 Bft) 0 min
16.10.2016 20:12 22,8 C 12,0 C 14,2 C 90 % 0 % 1024 hPa 0,0 l/m 0,0 km/h (0 Bft) 0 min
16.10.2016 20:15 22,8 C 12,0 C 14,0 C 90 % 0 % 1024 hPa 0,0 l/m 0,0 km/h (0 Bft) 0 min
16.10.2016 20:18 22,8 C 11,9 C 14,1 C 90 % 0 % 1024 hPa 0,0 l/m 0,0 km/h (0 Bft) 0 min
16.10.2016 20:21 22,8 C 11,8 C 14,1 C 90 % 0 % 1024 hPa 0,0 l/m 0,0 km/h (0 Bft) 0 min
16.10.2016 20:24 22,8 C 11,8 C 14,1 C 90 % 0 % 1024 hPa 0,0 l/m 0,0 km/h (0 Bft) 0 min
16.10.2016 20:27 22,8 C 11,6 C 13,9 C 91 % 0 % 1024 hPa 0,0 l/m 0,0 km/h (0 Bft) 0 min
16.10.2016 20:30 22,8 C 11,5 C 13,8 C 91 % 0 % 1024 hPa 0,0 l/m 0,0 km/h (0 Bft) 0 min
16.10.2016 20:33 22,8 C 11,5 C 13,8 C 91 % 0 % 1024 hPa 0,0 l/m 0,1 km/h (0 Bft) 0 min
16.10.2016 20:36 22,8 C 11,5 C 13,6 C 91 % 0 % 1024 hPa 0,0 l/m 0,0 km/h (0 Bft) 0 min
16.10.2016 20:39 22,8 C 11,4 C 13,3 C 91 % 0 % 1024 hPa 0,0 l/m 0,0 km/h (0 Bft) 0 min
16.10.2016 20:42 22,8 C 11,4 C 13,3 C 91 % 0 % 1024 hPa 0,0 l/m 0,0 km/h (0 Bft) 0 min
16.10.2016 20:45 22,8 C 11,2 C 13,0 C 91 % 0 % 1024 hPa 0,0 l/m 0,3 km/h (0 Bft) 0 min
16.10.2016 20:48 22,8 C 11,2 C 13,3 C 91 % 0 % 1024 hPa 0,0 l/m 0,3 km/h (0 Bft) 0 min
16.10.2016 20:51 22,8 C 11,1 C 13,2 C 91 % 0 % 1024 hPa 0,0 l/m 0,9 km/h (0 Bft) 0 min
16.10.2016 20:54 22,8 C 11,0 C 13,2 C 92 % 0 % 1024 hPa 0,0 l/m 0,0 km/h (0 Bft) 0 min
16.10.2016 20:57 22,8 C 11,0 C 13,1 C 92 % 0 % 1024 hPa 0,0 l/m 0,2 km/h (0 Bft) 0 min
16.10.2016 21:00 22,8 C 11,0 C 13,4 C 92 % 0 % 1024 hPa 0,0 l/m 1,8 km/h (1 Bft) 0 min
16.10.2016 21:03 22,8 C 11,0 C 13,1 C 92 % 0 % 1024 hPa 0,0 l/m 0,1 km/h (0 Bft) 0 min
16.10.2016 21:06 22,8 C 11,0 C 13,1 C 92 % 0 % 1024 hPa 0,0 l/m 0,0 km/h (0 Bft) 0 min
16.10.2016 21:09 22,8 C 10,9 C 13,1 C 92 % 0 % 1024 hPa 0,0 l/m 0,0 km/h (0 Bft) 0 min
16.10.2016 21:12 22,8 C 10,9 C 13,1 C 92 % 0 % 1025 hPa 0,0 l/m 0,0 km/h (0 Bft) 0 min
16.10.2016 21:15 22,8 C 10,8 C 12,9 C 92 % 0 % 1025 hPa 0,0 l/m 0,0 km/h (0 Bft) 0 min
16.10.2016 21:18 22,8 C 10,7 C 12,7 C 92 % 0 % 1025 hPa 0,0 l/m 0,0 km/h (0 Bft) 0 min
16.10.2016 21:21 22,8 C 10,6 C 12,9 C 92 % 0 % 1025 hPa 0,0 l/m 0,0 km/h (0 Bft) 0 min
16.10.2016 21:24 22,8 C 10,6 C 12,9 C 92 % 0 % 1025 hPa 0,0 l/m 0,0 km/h (0 Bft) 0 min
16.10.2016 21:27 22,8 C 10,6 C 12,9 C 92 % 0 % 1025 hPa 0,0 l/m 0,0 km/h (0 Bft) 0 min
16.10.2016 21:30 22,8 C 10,4 C 12,6 C 92 % 0 % 1025 hPa 0,0 l/m 0,1 km/h (0 Bft) 0 min
16.10.2016 21:33 22,8 C 10,4 C 12,6 C 92 % 0 % 1025 hPa 0,0 l/m 1,9 km/h (1 Bft) 0 min
16.10.2016 21:36 22,8 C 10,4 C 12,6 C 92 % 0 % 1025 hPa 0,0 l/m 0,0 km/h (0 Bft) 0 min
16.10.2016 21:39 22,8 C 10,4 C 12,7 C 92 % 0 % 1025 hPa 0,0 l/m 1,9 km/h (1 Bft) 0 min
16.10.2016 21:42 22,8 C 10,4 C 12,9 C 92 % 0 % 1025 hPa 0,0 l/m 0,1 km/h (0 Bft) 0 min
16.10.2016 21:45 22,8 C 10,4 C 12,7 C 92 % 0 % 1025 hPa 0,0 l/m 0,0 km/h (0 Bft) 0 min
16.10.2016 21:48 22,8 C 10,4 C 12,7 C 93 % 0 % 1025 hPa 0,0 l/m 1,2 km/h (1 Bft) 0 min
16.10.2016 21:51 22,8 C 10,4 C 12,7 C 92 % 0 % 1025 hPa 0,0 l/m 1,2 km/h (1 Bft) 0 min
16.10.2016 21:54 22,8 C 10,2 C 12,3 C 93 % 0 % 1025 hPa 0,0 l/m 0,2 km/h (0 Bft) 0 min
16.10.2016 21:57 22,8 C 10,2 C 12,4 C 92 % 0 % 1025 hPa 0,0 l/m 0,0 km/h (0 Bft) 0 min
16.10.2016 22:00 22,8 C 10,2 C 12,3 C 92 % 0 % 1025 hPa 0,0 l/m 0,7 km/h (0 Bft) 0 min
16.10.2016 22:03 22,8 C 10,2 C 12,6 C 92 % 0 % 1025 hPa 0,0 l/m 0,0 km/h (0 Bft) 0 min
16.10.2016 22:06 22,8 C 10,1 C 12,7 C 92 % 0 % 1025 hPa 0,0 l/m 0,0 km/h (0 Bft) 0 min
16.10.2016 22:09 22,8 C 10,2 C 12,7 C 92 % 0 % 1025 hPa 0,0 l/m 0,0 km/h (0 Bft) 0 min
16.10.2016 22:12 22,7 C 10,1 C 12,7 C 93 % 0 % 1025 hPa 0,0 l/m 0,0 km/h (0 Bft) 0 min
16.10.2016 22:15 22,8 C 10,1 C 12,2 C 92 % 0 % 1025 hPa 0,0 l/m 0,2 km/h (0 Bft) 0 min
16.10.2016 22:18 22,8 C 10,0 C 12,0 C 92 % 0 % 1025 hPa 0,0 l/m 2,1 km/h (1 Bft) 0 min
16.10.2016 22:21 22,8 C 10,0 C 12,2 C 92 % 0 % 1025 hPa 0,0 l/m 0,1 km/h (0 Bft) 0 min
16.10.2016 22:24 22,7 C 9,9 C 12,5 C 93 % 0 % 1025 hPa 0,0 l/m 0,0 km/h (0 Bft) 0 min
16.10.2016 22:27 22,7 C 10,0 C 12,5 C 93 % 0 % 1025 hPa 0,0 l/m 0,0 km/h (0 Bft) 0 min
16.10.2016 22:30 22,7 C 10,0 C 12,5 C 93 % 0 % 1025 hPa 0,0 l/m 0,0 km/h (0 Bft) 0 min
16.10.2016 22:33 22,7 C 10,0 C 12,4 C 93 % 0 % 1025 hPa 0,0 l/m 0,0 km/h (0 Bft) 0 min
16.10.2016 22:36 22,7 C 10,0 C 12,2 C 93 % 0 % 1025 hPa 0,0 l/m 0,0 km/h (0 Bft) 0 min
16.10.2016 22:39 22,7 C 10,0 C 12,3 C 93 % 0 % 1025 hPa 0,0 l/m 0,0 km/h (0 Bft) 0 min
16.10.2016 22:42 22,7 C 10,0 C 12,3 C 93 % 0 % 1025 hPa 0,0 l/m 0,0 km/h (0 Bft) 0 min
16.10.2016 22:45 22,7 C 9,9 C 12,1 C 93 % 0 % 1025 hPa 0,0 l/m 0,0 km/h (0 Bft) 0 min
16.10.2016 22:48 22,7 C 9,8 C 11,9 C 93 % 0 % 1025 hPa 0,0 l/m 0,0 km/h (0 Bft) 0 min
16.10.2016 22:51 22,7 C 9,8 C 11,6 C 92 % 0 % 1025 hPa 0,0 l/m 0,3 km/h (0 Bft) 0 min
16.10.2016 22:54 22,7 C 9,6 C 12,0 C 92 % 0 % 1025 hPa 0,0 l/m 0,3 km/h (0 Bft) 0 min
16.10.2016 22:57 22,7 C 9,6 C 12,1 C 92 % 0 % 1025 hPa 0,0 l/m 0,3 km/h (0 Bft) 0 min
16.10.2016 23:00 22,7 C 9,6 C 11,8 C 93 % 0 % 1025 hPa 0,0 l/m 0,0 km/h (0 Bft) 0 min
16.10.2016 23:03 22,7 C 9,6 C 11,9 C 93 % 0 % 1025 hPa 0,0 l/m 0,0 km/h (0 Bft) 0 min
16.10.2016 23:06 22,7 C 9,6 C 11,9 C 93 % 0 % 1025 hPa 0,0 l/m 0,1 km/h (0 Bft) 0 min
16.10.2016 23:09 22,6 C 9,5 C 12,0 C 93 % 0 % 1025 hPa 0,0 l/m 2,0 km/h (1 Bft) 0 min
16.10.2016 23:12 22,7 C 9,6 C 12,0 C 93 % 0 % 1025 hPa 0,0 l/m 0,2 km/h (0 Bft) 0 min
16.10.2016 23:15 22,6 C 9,5 C 11,8 C 93 % 0 % 1025 hPa 0,0 l/m 0,0 km/h (0 Bft) 0 min
16.10.2016 23:18 22,6 C 9,5 C 11,8 C 93 % 0 % 1025 hPa 0,0 l/m 0,0 km/h (0 Bft) 0 min
16.10.2016 23:21 22,6 C 9,5 C 11,9 C 93 % 0 % 1025 hPa 0,0 l/m 0,0 km/h (0 Bft) 0 min
16.10.2016 23:24 22,6 C 9,5 C 11,8 C 93 % 0 % 1025 hPa 0,0 l/m 0,0 km/h (0 Bft) 0 min
16.10.2016 23:27 22,6 C 9,6 C 11,8 C 93 % 0 % 1025 hPa 0,0 l/m 2,3 km/h (1 Bft) 0 min
16.10.2016 23:30 22,6 C 9,6 C 11,6 C 93 % 0 % 1025 hPa 0,0 l/m 1,9 km/h (1 Bft) 0 min
16.10.2016 23:33 22,6 C 9,4 C 11,5 C 93 % 0 % 1025 hPa 0,0 l/m 0,0 km/h (0 Bft) 0 min
16.10.2016 23:36 22,6 C 9,5 C 11,7 C 93 % 0 % 1025 hPa 0,0 l/m 0,1 km/h (0 Bft) 0 min
16.10.2016 23:39 22,6 C 9,4 C 11,6 C 93 % 0 % 1025 hPa 0,0 l/m 0,0 km/h (0 Bft) 0 min
16.10.2016 23:42 22,6 C 9,4 C 11,3 C 93 % 0 % 1025 hPa 0,0 l/m 0,0 km/h (0 Bft) 0 min
16.10.2016 23:45 22,6 C 9,3 C 11,4 C 93 % 0 % 1025 hPa 0,0 l/m 0,3 km/h (0 Bft) 0 min
16.10.2016 23:48 22,6 C 9,2 C 11,5 C 93 % 0 % 1025 hPa 0,0 l/m 0,3 km/h (0 Bft) 0 min
16.10.2016 23:51 22,6 C 9,2 C 11,5 C 93 % 0 % 1025 hPa 0,0 l/m 0,1 km/h (0 Bft) 0 min
16.10.2016 23:54 22,6 C 9,2 C 11,3 C 93 % 0 % 1025 hPa 0,0 l/m 0,2 km/h (0 Bft) 0 min
16.10.2016 23:57 22,6 C 9,2 C 11,3 C 93 % 0 % 1025 hPa 0,0 l/m 0,0 km/h (0 Bft) 0 min
_ Min-Zeit 08:36 23:48 05:51 15:27 - 00:02 - 00:02 -
Minimum _ 22,3 C 9,2 C 11,3 C 61 % - 1021 hPa - 0,0 km/h (0 Bft) -
_ Max-Zeit 16:09 14:18 15:12 07:57 12:21 10:09 05:06 15:24 10:54
Maximum _ 23,4 C 19,0 C 19,0 C 98 % 81 % 1025 hPa 0,3 l/m 8,7 km/h
O (2 Bft)
3 min
Durchschnitt _ 22,7 C 12,9 C 13,7 C 88 % #5:21 h 1024 hPa #0,3 l/m 1,0 km/h (0 Bft) #5:21 h